GW6810 Weather Reports


time (UTC)temp
C
wind
direction
speed
KPH
gust
KPH
rain 1hr
cm
rain 24hr
cm
rain mn
cm
humidity
%
barometer
mb
20260507170032 11 64 9.7 19.3 0.33 0.86 0.86 95 1011.4
20260507165511 11 88 4.8 19.3 0.36 0.84 0.84 96 1011.7
20260507165013 11 90 4.8 20.9 0.41 0.84 0.84 96 1011.5
20260507164528 11 42 8.0 20.9 0.46 0.84 0.84 96 1011.3
20260507164009 11 65 4.8 19.3 0.46 0.81 0.81 96 1011.2
20260507163515 11 65 8.0 20.9 0.48 0.79 0.79 96 1011.0
20260507163035 11 32 9.7 25.7 0.53 0.76 0.76 95 1011.0
20260507162514 11 53 12.9 25.7 0.56 0.74 0.74 95 1011.1
20260507162011 12 84 14.5 25.7 0.61 0.74 0.74 95 1010.9
20260507161530 12 83 11.3 22.5 0.64 0.71 0.71 96 1011.0
20260507161011 12 78 9.7 16.1 0.61 0.66 0.66 96 1011.1
20260507160509 12 37 6.4 17.7 0.56 0.61 0.61 96 1011.4
20260507160054 12 53 9.7 25.7 0.46 0.53 0.53 96 1011.5
20260507155512 12 23 14.5 25.7 0.41 0.46 0.46 96 1011.2
20260507155011 12 44 12.9 24.1 0.33 0.38 0.38 96 1011.0
20260507154529 12 51 12.9 30.6 0.28 0.36 0.36 96 1011.0
20260507154011 11 59 14.5 30.6 0.25 0.30 0.30 95 1010.5
20260507153508 11 67 12.9 24.1 0.20 0.28 0.28 95 1010.5
20260507153032 11 28 11.3 25.7 0.18 0.23 0.23 95 1011.1
20260507152511 11 69 8.0 30.6 0.08 0.15 0.15 95 1011.5
20260507152013 11 42 14.5 30.6 0.03 0.08 0.08 95 1011.2
20260507151526 12 49 8.0 27.4 0.00 0.05 0.05 95 1011.4
20260507151011 12 29 12.9 27.4 0.00 0.05 0.05 95 1011.5
20260507150512 12 55 11.3 27.4 0.00 0.05 0.05 95 1011.6
20260507150030 12 24 6.4 30.6 0.00 0.05 0.05 95 1011.6
20260507145511 12 54 12.9 30.6 0.00 0.05 0.05 94 1011.6
20260507145011 12 42 12.9 25.7 0.00 0.05 0.05 94 1011.4
20260507144542 12 336 8.0 29.0 0.00 0.05 0.05 95 1011.2
20260507144014 12 45 14.5 29.0 0.00 0.05 0.05 94 1011.3
20260507143515 13 63 19.3 29.0 0.00 0.05 0.05 94 1011.2
20260507143032 13 33 14.5 30.6 0.00 0.05 0.05 94 1011.1
20260507142513 13 51 16.1 30.6 0.00 0.05 0.05 94 1011.2
20260507142013 13 24 16.1 24.1 0.00 0.05 0.05 94 1011.1
20260507141530 13 53 14.5 27.4 0.00 0.05 0.05 94 1011.0
20260507141017 14 55 16.1 27.4 0.00 0.05 0.05 94 1011.0
20260507140513 14 65 11.3 20.9 0.00 0.05 0.05 94 1011.0
20260507140034 15 59 12.9 20.9 0.00 0.05 0.05 94 1010.9
20260507135511 15 82 8.0 20.9 0.00 0.05 0.05 95 1010.9
20260507135013 14 54 6.4 19.3 0.00 0.05 0.05 95 1010.9
20260507134530 14 75 3.2 19.3 0.00 0.05 0.05 94 1010.8
20260507134010 14 54 9.7 25.7 0.00 0.05 0.05 94 1010.7
20260507133513 14 14 9.7 25.7 0.00 0.05 0.05 94 1010.7
20260507133028 15 55 8.0 25.7 0.00 0.05 0.05 94 1010.7
20260507132513 15 11 14.5 25.7 0.00 0.05 0.05 94 1010.5
20260507132010 15 28 11.3 24.1 0.00 0.05 0.05 94 1010.6
20260507131532 15 74 11.3 24.1 0.00 0.05 0.05 94 1010.6
20260507131010 15 327 9.7 22.5 0.00 0.05 0.05 94 1010.4
20260507130511 15 11 9.7 22.5 0.00 0.05 0.05 94 1010.7
20260507130036 15 84 9.7 22.5 0.00 0.05 0.05 94 1010.9
20260507125513 15 348 9.7 22.5 0.00 0.05 0.05 94 1011.2
20260507125011 15 61 4.8 17.7 0.00 0.05 0.05 94 1011.3
20260507124527 15 329 6.4 25.7 0.00 0.05 0.05 94 1011.3
20260507124013 14 64 12.9 27.4 0.00 0.05 0.05 94 1011.0
20260507123515 15 92 9.7 27.4 0.00 0.05 0.05 94 1010.9
20260507123038 15 60 9.7 27.4 0.00 0.05 0.05 94 1010.9
20260507122511 15 67 9.7 27.4 0.00 0.05 0.05 94 1011.0
20260507122012 15 65 9.7 27.4 0.00 0.05 0.05 94 1010.9
20260507121528 15 46 4.8 27.4 0.00 0.05 0.05 94 1011.0
20260507121011 15 28 9.7 27.4 0.00 0.05 0.05 93 1010.9
20260507120510 15 55 6.4 27.4 0.00 0.05 0.05 93 1010.8
20260507120030 15 36 14.5 27.4 0.00 0.05 0.05 93 1010.8
20260507115511 15 38 14.5 27.4 0.00 0.05 0.05 92 1011.1
20260507115012 16 15 6.4 29.0 0.00 0.05 0.05 92 1011.0
20260507114528 16 61 16.1 29.0 0.00 0.05 0.05 89 1010.7
20260507114011 18 23 4.8 14.5 0.00 0.05 0.05 94 1010.7
20260507113509 18 242 0.0 3.2 0.00 0.05 0.05 94 1010.2
20260507113030 18 0 0.0 4.8 0.00 0.05 0.05 94 1010.0
20260507112513 18 270 1.6 4.8 0.00 0.05 0.05 94 1010.2
20260507112012 18 0 0.0 4.8 0.00 0.05 0.05 93 1010.0
20260507111537 18 269 1.6 11.3 0.00 0.05 0.05 93 1010.3
20260507111013 18 0 3.2 11.3 0.00 0.05 0.05 93 1010.3
20260507110510 18 0 0.0 8.0 0.00 0.05 0.05 93 1010.1
20260507110031 18 267 1.6 9.7 0.00 0.05 0.05 93 1010.0
20260507105512 18 263 4.8 9.7 0.00 0.05 0.05 93 1010.1
20260507105012 18 279 4.8 12.9 0.00 0.05 0.05 93 1010.0
20260507104528 18 279 4.8 12.9 0.00 0.05 0.05 93 1009.9
20260507104011 18 281 8.0 12.9 0.00 0.05 0.05 92 1010.0
20260507103511 18 271 3.2 6.4 0.00 0.05 0.05 92 1009.8
20260507103032 18 269 1.6 4.8 0.00 0.05 0.05 92 1009.8
20260507102511 18 269 0.0 12.9 0.03 0.05 0.05 92 1009.9
20260507102010 18 281 3.2 12.9 0.03 0.05 0.05 91 1010.0
20260507101530 18 266 3.2 14.5 0.03 0.05 0.05 91 1009.9
20260507101010 18 283 6.4 14.5 0.03 0.05 0.05 90 1009.8
20260507100513 18 306 8.0 22.5 0.03 0.05 0.05 90 1009.6
20260507100027 19 309 6.4 22.5 0.03 0.05 0.05 89 1009.5
20260507095509 19 275 8.0 16.1 0.03 0.05 0.05 88 1009.3
20260507095011 19 278 9.7 14.5 0.00 0.03 0.03 88 1009.0
20260507094531 19 278 6.4 14.5 0.00 0.03 0.03 88 1008.9
20260507094011 19 222 3.2 19.3 0.00 0.03 0.03 89 1008.8
20260507093511 19 261 3.2 19.3 0.00 0.03 0.03 88 1008.9
20260507093040 19 259 4.8 19.3 0.00 0.03 0.03 88 1008.9
20260507092512 19 281 6.4 16.1 0.00 0.00 0.00 88 1008.9
20260507092011 19 235 6.4 16.1 0.00 0.00 0.00 88 1008.8
20260507091530 19 274 4.8 17.7 0.00 0.00 0.00 87 1009.0
20260507091014 19 230 4.8 17.7 0.00 0.00 0.00 87 1009.0
20260507090512 19 271 9.7 16.1 0.00 0.00 0.00 86 1009.2
20260507090028 19 258 8.0 16.1 0.00 0.00 0.00 86 1009.3
20260507085511 19 232 4.8 17.7 0.00 0.00 0.00 86 1009.1
20260507085014 20 259 8.0 22.5 0.00 0.00 0.00 85 1009.3
20260507084528 20 223 8.0 22.5 0.00 0.00 0.00 85 1009.4
20260507084016 20 282 8.0 20.9 0.00 0.00 0.00 85 1009.3
20260507083511 20 236 9.7 20.9 0.00 0.00 0.00 84 1009.6
20260507083030 20 275 11.3 24.1 0.00 0.00 0.00 84 1009.6
20260507082513 20 231 11.3 25.7 0.00 0.00 0.00 84 1009.5
20260507082012 20 213 8.0 25.7 0.00 0.00 0.00 83 1009.4
20260507081536 20 246 11.3 25.7 0.00 0.00 0.00 83 1009.6
20260507081012 20 269 8.0 19.3 0.00 0.00 0.00 83 1009.7
20260507080518 20 246 9.7 24.1 0.00 0.00 0.00 83 1009.8
20260507080030 20 180 12.9 24.1 0.00 0.00 0.00 82 1009.8
20260507075512 20 272 8.0 24.1 0.00 0.00 0.00 82 1009.8
20260507075013 20 319 8.0 16.1 0.00 0.00 0.00 82 1010.0
20260507074528 20 211 8.0 14.5 0.00 0.00 0.00 82 1010.2
20260507074014 20 279 6.4 17.7 0.00 0.00 0.00 82 1010.2
20260507073509 20 271 6.4 19.3 0.00 0.00 0.00 83 1010.1
20260507073028 20 279 9.7 19.3 0.00 0.00 0.00 83 1010.0
20260507072511 20 257 8.0 20.9 0.00 0.00 0.00 83 1009.7
20260507072010 20 280 8.0 20.9 0.00 0.00 0.00 83 1010.1
20260507071530 20 206 11.3 17.7 0.00 0.00 0.00 83 1009.9
20260507071010 20 261 9.7 19.3 0.00 0.00 0.00 83 1009.8
20260507070515 20 246 9.7 19.3 0.00 0.00 0.00 83 1009.8
20260507070030 20 279 6.4 17.7 0.00 0.00 0.00 83 1009.8
20260507065514 20 253 6.4 17.7 0.00 0.00 0.00 84 1009.7
20260507065012 20 215 8.0 17.7 0.00 0.00 0.00 83 1009.8
20260507064530 20 232 3.2 16.1 0.00 0.00 0.00 83 1009.5
20260507064012 20 180 6.4 17.7 0.00 0.00 0.00 83 1009.3
20260507063511 20 205 4.8 17.7 0.00 0.00 0.00 83 1009.6
20260507063030 20 277 3.2 11.3 0.00 0.00 0.00 81 1009.4
20260507062511 20 154 4.8 11.3 0.00 0.00 0.00 81 1009.0
20260507062017 20 229 3.2 11.3 0.00 0.00 0.00 81 1009.6
20260507061529 20 0 3.2 11.3 0.00 0.00 0.00 81 1009.9
20260507061009 20 219 4.8 16.1 0.00 0.00 0.00 81 1010.2
20260507060512 20 225 4.8 17.7 0.00 0.00 0.00 81 1010.7
20260507060030 20 273 8.0 17.7 0.00 0.00 0.00 80 1010.9
20260507055510 20 280 6.4 19.3 0.00 0.00 0.00 80 1010.8
20260507055013 20 233 8.0 19.3 0.00 0.00 0.00 79 1010.8
20260507054528 20 250 11.3 17.7 0.00 0.00 0.00 78 1010.9
20260507054012 21 181 9.7 20.9 0.00 0.00 0.00 77 1010.9
20260507053512 21 263 11.3 20.9 0.00 0.00 0.00 76 1011.0
20260507053030 21 273 9.7 20.9 0.00 0.00 0.00 76 1011.0
20260507052511 21 234 9.7 19.3 0.00 0.00 0.00 76 1011.0
20260507052012 21 306 11.3 17.7 0.00 0.00 0.00 75 1011.1
20260507051528 21 255 6.4 17.7 0.00 0.00 0.00 75 1011.1
20260507051011 21 269 8.0 17.7 0.00 0.00 0.00 75 1011.1
20260507050512 21 240 8.0 17.7 0.00 0.00 0.00 74 1011.0
20260507050036 21 232 8.0 17.7 0.00 0.00 0.00 74 1011.0
20260507045514 21 253 6.4 14.5 0.00 0.00 0.00 73 1010.8
20260507045010 21 240 6.4 14.5 0.00 0.00 0.00 73 1010.8
20260507044531 21 148 6.4 12.9 0.00 0.00 0.00 73 1010.6
20260507044012 21 213 6.4 12.9 0.00 0.00 0.00 73 1010.7
20260507043510 21 162 3.2 12.9 0.00 0.00 0.00 73 1010.7
20260507043028 21 163 1.6 17.7 0.00 0.00 0.00 73 1010.9
20260507042510 21 243 3.2 17.7 0.00 0.00 0.00 73 1011.0
20260507042010 21 235 6.4 17.7 0.00 0.00 0.00 72 1010.9
20260507041545 21 258 3.2 14.5 0.00 0.00 0.00 72 1011.1
20260507041012 21 217 4.8 11.3 0.00 0.00 0.00 72 1010.9
20260507040513 22 188 4.8 11.3 0.00 0.00 0.00 72 1010.8
20260507040028 21 237 4.8 11.3 0.00 0.00 0.00 72 1010.8
20260507035512 21 269 3.2 11.3 0.00 0.00 0.00 72 1010.8
20260507035015 21 243 3.2 11.3 0.00 0.00 0.00 71 1010.7
20260507034530 22 215 4.8 11.3 0.00 0.00 0.00 71 1010.5
20260507034012 22 240 4.8 9.7 0.00 0.00 0.00 70 1010.2
20260507033511 22 208 3.2 11.3 0.00 0.00 0.00 70 1010.3
20260507033032 22 267 4.8 11.3 0.00 0.00 0.00 70 1010.5
20260507032516 22 284 3.2 8.0 0.00 0.00 0.00 70 1010.2
20260507032013 22 153 3.2 12.9 0.00 0.00 0.00 70 1010.3
20260507031529 22 244 4.8 12.9 0.00 0.00 0.00 69 1010.3
20260507031012 22 228 4.8 12.9 0.00 0.00 0.00 69 1010.4
20260507030513 22 271 4.8 9.7 0.00 0.00 0.00 69 1010.5
20260507030030 22 261 4.8 9.7 0.00 0.00 0.00 68 1010.8
20260507025517 22 225 1.6 9.7 0.00 0.00 0.00 68 1010.7
20260507025012 22 202 3.2 9.7 0.00 0.00 0.00 68 1010.8
20260507024530 22 178 3.2 9.7 0.00 0.00 0.00 68 1010.9
20260507024016 22 0 3.2 12.9 0.00 0.00 0.00 69 1011.1
20260507023510 22 131 4.8 14.5 0.00 0.00 0.00 68 1011.2
20260507023027 22 180 6.4 14.5 0.00 0.00 0.00 68 1011.3
20260507022513 22 173 3.2 9.7 0.00 0.00 0.00 68 1011.2
20260507022011 22 233 1.6 8.0 0.00 0.00 0.00 68 1011.1
20260507021528 22 213 3.2 8.0 0.00 0.00 0.00 68 1011.1
20260507021012 22 213 3.2 8.0 0.00 0.00 0.00 68 1011.1
20260507020513 22 193 3.2 8.0 0.00 0.00 0.00 68 1011.1
20260507020029 22 188 3.2 9.7 0.00 0.00 0.00 68 1011.0
20260507015511 22 159 3.2 9.7 0.00 0.00 0.00 68 1011.2
20260507015011 22 205 4.8 11.3 0.00 0.00 0.00 68 1011.3
20260507014547 22 184 4.8 12.9 0.00 0.00 0.00 67 1011.3
20260507014012 22 240 4.8 12.9 0.00 0.00 0.00 67 1011.3
20260507013511 22 280 4.8 9.7 0.00 0.00 0.00 67 1011.0
20260507013041 22 0 3.2 8.0 0.00 0.00 0.00 66 1010.8
20260507012515 23 284 0.0 8.0 0.00 0.00 0.00 65 1010.8
20260507012016 23 254 1.6 8.0 0.00 0.00 0.00 66 1011.0
20260507011537 23 227 3.2 8.0 0.00 0.00 0.00 66 1011.0
20260507011011 23 211 1.6 6.4 0.00 0.00 0.00 65 1010.9
20260507010512 23 135 1.6 6.4 0.00 0.00 0.00 65 1011.1
20260507010032 23 204 3.2 11.3 0.00 0.00 0.00 65 1011.2
20260507005514 23 277 4.8 11.3 0.00 0.00 0.00 65 1011.1
20260507005011 23 234 3.2 12.9 0.00 0.00 0.00 64 1011.2
20260507004529 23 223 4.8 14.5 0.00 0.00 0.00 64 1011.1
20260507004013 23 261 4.8 14.5 0.00 0.00 0.00 64 1011.1
20260507003510 23 254 4.8 11.3 0.00 0.00 0.00 63 1010.9
20260507003027 23 236 4.8 11.3 0.00 0.00 0.00 63 1010.9
20260507002510 23 234 4.8 11.3 0.00 0.00 0.00 63 1010.8
20260507002010 23 227 4.8 12.9 0.00 0.00 0.00 62 1010.8
20260507001530 23 241 6.4 12.9 0.00 0.00 0.00 62 1010.7
20260507001010 23 211 4.8 11.3 0.00 0.00 0.00 62 1010.7
20260507000516 24 208 4.8 14.5 0.00 0.00 0.00 61 1010.5
20260507000032 24 221 4.8 14.5 0.00 0.00 0.00 61 1010.3
20260506235511 24 226 3.2 16.1 0.00 0.00 0.00 60 1010.4
20260506235009 24 265 6.4 22.5 0.00 0.00 0.00 60 1010.5
20260506234530 24 273 6.4 22.5 0.00 0.00 0.00 60 1010.6
20260506234011 24 258 11.3 22.5 0.00 0.00 0.00 60 1010.5
20260506233512 24 227 4.8 22.5 0.00 0.00 0.00 60 1010.5
20260506233028 25 276 6.4 22.5 0.00 0.00 0.00 59 1010.4
20260506232510 25 218 8.0 19.3 0.00 0.00 0.00 60 1010.4
20260506232011 25 271 4.8 17.7 0.00 0.00 0.00 60 1010.3
20260506231529 25 252 4.8 17.7 0.00 0.00 0.00 60 1010.3
20260506231012 25 293 8.0 17.7 0.00 0.00 0.00 59 1010.4
20260506230510 25 281 8.0 17.7 0.00 0.00 0.00 59 1010.2
20260506230031 25 275 9.7 17.7 0.00 0.00 0.00 59 1010.2
20260506225514 25 225 6.4 19.3 0.00 0.00 0.00 59 1010.2
20260506225009 25 224 6.4 19.3 0.00 0.00 0.00 59 1010.1
20260506224528 25 256 6.4 16.1 0.00 0.00 0.00 59 1010.3
20260506224010 25 226 4.8 20.9 0.00 0.00 0.00 59 1010.2
20260506223510 25 206 9.7 20.9 0.00 0.00 0.00 59 1010.3
20260506223028 25 234 9.7 20.9 0.00 0.00 0.00 59 1010.3
20260506222513 25 236 11.3 24.1 0.00 0.00 0.00 59 1010.3
20260506222011 25 267 11.3 24.1 0.00 0.00 0.00 59 1010.2
20260506221529 25 213 9.7 22.5 0.00 0.00 0.00 60 1010.3
20260506221014 25 261 11.3 27.4 0.00 0.00 0.00 59 1010.2
20260506220510 25 290 8.0 27.4 0.00 0.00 0.00 59 1010.4
20260506220029 25 273 8.0 20.9 0.00 0.00 0.00 59 1010.3
20260506215512 25 241 11.3 24.1 0.00 0.00 0.00 59 1010.2
20260506215015 25 231 9.7 24.1 0.00 0.00 0.00 59 1010.0
20260506214527 25 281 11.3 25.7 0.00 0.00 0.00 59 1010.1
20260506214011 25 246 11.3 30.6 0.00 0.00 0.00 59 1010.2
20260506213512 25 292 11.3 30.6 0.00 0.00 0.00 58 1009.9
20260506213030 25 250 20.9 33.8 0.00 0.00 0.00 58 1010.0
20260506212510 25 259 12.9 33.8 0.00 0.00 0.00 58 1009.9
20260506212011 25 279 11.3 33.8 0.00 0.00 0.00 57 1009.7
20260506211528 25 184 11.3 25.7 0.00 0.00 0.00 58 1009.6
20260506211011 25 252 12.9 35.4 0.00 0.00 0.00 57 1009.7
20260506210511 25 130 14.5 38.6 0.00 0.00 0.00 57 1009.9
20260506210036 25 249 17.7 38.6 0.00 0.00 0.00 57 1009.9
20260506205511 25 216 17.7 32.2 0.00 0.00 0.00 57 1010.0
20260506205011 25 216 12.9 27.4 0.00 0.00 0.00 58 1010.1
20260506204528 25 169 11.3 25.7 0.00 0.00 0.00 58 1010.1
20260506204009 25 267 14.5 35.4 0.00 0.00 0.00 58 1010.2
20260506203510 25 239 9.7 35.4 0.00 0.00 0.00 58 1010.3
20260506203037 25 246 12.9 35.4 0.00 0.00 0.00 58 1010.6
20260506202511 25 286 19.3 40.2 0.00 0.00 0.00 58 1010.6
20260506202013 25 169 11.3 40.2 0.00 0.00 0.00 57 1010.7
20260506201531 25 272 20.9 41.8 0.00 0.00 0.00 56 1010.7
20260506201010 25 209 22.5 41.8 0.00 0.00 0.00 57 1011.1
20260506200512 25 243 20.9 41.8 0.00 0.00 0.00 60 1011.1
20260506200032 25 215 14.5 38.6 0.00 0.00 0.00 60 1011.2
20260506195511 25 236 19.3 32.2 0.00 0.00 0.00 61 1011.4
20260506195012 25 229 12.9 30.6 0.00 0.00 0.00 62 1011.4
20260506194530 25 229 8.0 35.4 0.00 0.00 0.00 62 1011.5
20260506194013 25 229 16.1 40.2 0.00 0.00 0.00 62 1011.6
20260506193510 25 215 16.1 40.2 0.00 0.00 0.00 63 1011.7
20260506193029 25 213 12.9 25.7 0.00 0.00 0.00 62 1011.8
20260506192513 25 223 12.9 30.6 0.00 0.00 0.00 62 1011.8
20260506192011 25 254 14.5 32.2 0.00 0.00 0.00 62 1011.8
20260506191529 25 182 17.7 32.2 0.00 0.00 0.00 62 1011.7
20260506191011 25 170 11.3 24.1 0.00 0.00 0.00 63 1011.7
20260506190512 25 192 12.9 24.1 0.00 0.00 0.00 63 1011.7
20260506190031 24 244 11.3 29.0 0.00 0.00 0.00 63 1011.7
20260506185510 24 228 14.5 33.8 0.00 0.00 0.00 63 1011.7
20260506185011 24 202 16.1 33.8 0.00 0.00 0.00 63 1011.9
20260506184530 24 230 11.3 29.0 0.00 0.00 0.00 63 1012.1
20260506184010 24 237 14.5 29.0 0.00 0.00 0.00 62 1012.1
20260506183512 24 231 12.9 25.7 0.00 0.00 0.00 62 1012.1
20260506183030 24 200 12.9 33.8 0.00 0.00 0.00 63 1012.1
20260506182510 24 311 19.3 33.8 0.00 0.00 0.00 62 1012.2
20260506182011 24 160 16.1 41.8 0.00 0.00 0.00 63 1012.3
20260506181534 24 189 17.7 41.8 0.00 0.00 0.00 63 1012.3
20260506181013 24 188 19.3 38.6 0.00 0.00 0.00 63 1012.3
20260506180519 23 183 16.1 40.2 0.00 0.00 0.00 63 1012.6
20260506180038 23 141 20.9 40.2 0.00 0.00 0.00 62 1012.4
20260506175515 23 304 14.5 40.2 0.00 0.00 0.00 63 1012.7
20260506175011 23 201 14.5 40.2 0.00 0.00 0.00 64 1012.7
20260506174529 23 200 22.5 40.2 0.00 0.00 0.00 63 1013.0
20260506174012 23 203 16.1 37.0 0.00 0.00 0.00 63 1013.1
20260506173511 23 201 19.3 37.0 0.00 0.00 0.00 62 1013.2
20260506173029 23 172 19.3 32.2 0.00 0.00 0.00 62 1013.2
20260506172511 23 178 17.7 32.2 0.00 0.00 0.00 63 1013.3
20260506172012 23 171 16.1 30.6 0.00 0.00 0.00 63 1013.4
20260506171544 23 136 12.9 32.2 0.00 0.00 0.00 65 1013.6
20260506171009 23 257 16.1 32.2 0.00 0.00 0.00 66 1013.6
20260506170509 23 169 14.5 32.2 0.00 0.00 0.00 67 1013.5